| time (UTC) | temp C | wind direction | speed KPH | gust KPH | rain 1hr cm | rain 24hr cm | rain mn cm | humidity % | barometer mb |
| 20260505081551 | 18 | 0 | 1.6 | 11.3 | 0.00 | 0.00 | 0.00 | 78 | 1007.3 |
| 20260505080053 | 18 | 128 | 1.6 | 14.5 | 0.00 | 0.00 | 0.00 | 77 | 1007.6 |
| 20260505074549 | 18 | 148 | 1.6 | 9.7 | 0.00 | 0.00 | 0.00 | 76 | 1007.7 |
| 20260505073058 | 18 | 198 | 1.6 | 12.9 | 0.00 | 0.00 | 0.00 | 75 | 1007.5 |
| 20260505071545 | 18 | 148 | 1.6 | 17.7 | 0.00 | 0.00 | 0.00 | 74 | 1007.8 |
| 20260505070053 | 18 | 203 | 4.8 | 17.7 | 0.00 | 0.00 | 0.00 | 72 | 1008.0 |
| 20260505064544 | 18 | 0 | 1.6 | 16.1 | 0.00 | 0.00 | 0.00 | 72 | 1008.2 |
| 20260505063045 | 18 | 130 | 3.2 | 12.9 | 0.00 | 0.00 | 0.00 | 71 | 1008.6 |
| 20260505061544 | 18 | 170 | 1.6 | 12.9 | 0.00 | 0.00 | 0.00 | 70 | 1008.5 |
| 20260505060052 | 18 | 126 | 0.0 | 17.7 | 0.00 | 0.00 | 0.00 | 69 | 1008.8 |
| 20260505054549 | 18 | 0 | 0.0 | 17.7 | 0.00 | 0.00 | 0.00 | 69 | 1008.9 |
| 20260505053048 | 18 | 169 | 0.0 | 8.0 | 0.00 | 0.00 | 0.00 | 68 | 1009.2 |
| 20260505051547 | 18 | 0 | 0.0 | 8.0 | 0.00 | 0.00 | 0.00 | 68 | 1009.2 |
| 20260505050120 | 18 | 0 | 0.0 | 8.0 | 0.00 | 0.00 | 0.00 | 68 | 1009.2 |
| 20260505041553 | 19 | 162 | 0.0 | 6.4 | 0.00 | 0.00 | 0.00 | 68 | 1009.6 |
| 20260505040056 | 19 | 0 | 0.0 | 6.4 | 0.00 | 0.00 | 0.00 | 67 | 1009.6 |
| 20260505034545 | 20 | 157 | 0.0 | 16.1 | 0.00 | 0.00 | 0.00 | 67 | 1009.7 |
| 20260505033048 | 20 | 0 | 0.0 | 4.8 | 0.00 | 0.00 | 0.00 | 66 | 1009.8 |
| 20260505031549 | 20 | 167 | 0.0 | 6.4 | 0.00 | 0.00 | 0.00 | 66 | 1009.7 |
| 20260505030048 | 20 | 195 | 0.0 | 8.0 | 0.00 | 0.00 | 0.00 | 65 | 1009.5 |
| 20260505024543 | 20 | 203 | 0.0 | 6.4 | 0.00 | 0.00 | 0.00 | 65 | 1009.2 |
| 20260505023045 | 20 | 0 | 0.0 | 9.7 | 0.00 | 0.00 | 0.00 | 65 | 1009.1 |
| 20260505021545 | 20 | 0 | 0.0 | 4.8 | 0.00 | 0.00 | 0.00 | 65 | 1008.9 |
| 20260505020045 | 21 | 0 | 0.0 | 4.8 | 0.00 | 0.00 | 0.00 | 64 | 1008.9 |
| 20260505014603 | 21 | 153 | 1.6 | 9.7 | 0.00 | 0.00 | 0.00 | 64 | 1008.9 |
| 20260505013051 | 21 | 144 | 0.0 | 6.4 | 0.00 | 0.00 | 0.00 | 63 | 1008.8 |
| 20260505011545 | 21 | 157 | 1.6 | 11.3 | 0.00 | 0.00 | 0.00 | 61 | 1008.8 |
| 20260505010044 | 22 | 0 | 0.0 | 8.0 | 0.00 | 0.00 | 0.00 | 61 | 1008.6 |
| 20260505004547 | 22 | 150 | 0.0 | 6.4 | 0.00 | 0.00 | 0.00 | 61 | 1008.6 |
| 20260505003044 | 22 | 0 | 0.0 | 9.7 | 0.00 | 0.00 | 0.00 | 60 | 1008.7 |
| 20260505001556 | 22 | 0 | 1.6 | 6.4 | 0.00 | 0.00 | 0.00 | 59 | 1008.7 |
| 20260505000107 | 23 | 142 | 3.2 | 9.7 | 0.00 | 0.00 | 0.00 | 58 | 1008.7 |
| 20260504234605 | 23 | 163 | 1.6 | 11.3 | 0.00 | 0.00 | 0.00 | 57 | 1008.8 |
| 20260504233050 | 23 | 157 | 1.6 | 17.7 | 0.00 | 0.00 | 0.00 | 56 | 1009.0 |
| 20260504231545 | 24 | 173 | 3.2 | 19.3 | 0.00 | 0.00 | 0.00 | 55 | 1009.2 |
| 20260504230048 | 24 | 197 | 4.8 | 14.5 | 0.00 | 0.00 | 0.00 | 54 | 1009.3 |
| 20260504224605 | 25 | 0 | 3.2 | 14.5 | 0.00 | 0.00 | 0.00 | 56 | 1009.5 |
| 20260504223053 | 25 | 128 | 3.2 | 19.3 | 0.00 | 0.00 | 0.00 | 54 | 1009.4 |
| 20260504221552 | 25 | 132 | 4.8 | 16.1 | 0.00 | 0.00 | 0.00 | 53 | 1009.6 |
| 20260504220050 | 25 | 123 | 3.2 | 16.1 | 0.00 | 0.00 | 0.00 | 54 | 1009.6 |
| 20260504214546 | 25 | 170 | 3.2 | 17.7 | 0.00 | 0.00 | 0.00 | 52 | 1010.0 |
| 20260504213104 | 25 | 184 | 4.8 | 16.1 | 0.00 | 0.00 | 0.00 | 53 | 1009.9 |
| 20260504211546 | 25 | 202 | 6.4 | 17.7 | 0.00 | 0.00 | 0.00 | 52 | 1010.3 |
| 20260504210047 | 25 | 69 | 1.6 | 25.7 | 0.00 | 0.00 | 0.00 | 53 | 1010.5 |
| 20260504204553 | 25 | 157 | 6.4 | 24.1 | 0.00 | 0.00 | 0.00 | 52 | 1010.8 |
| 20260504203059 | 25 | 229 | 4.8 | 25.7 | 0.00 | 0.00 | 0.00 | 51 | 1010.7 |
| 20260504201545 | 25 | 246 | 6.4 | 19.3 | 0.00 | 0.00 | 0.00 | 51 | 1011.1 |
| 20260504200051 | 25 | 116 | 8.0 | 20.9 | 0.00 | 0.00 | 0.00 | 51 | 1011.5 |
| 20260504194559 | 25 | 139 | 8.0 | 33.8 | 0.00 | 0.00 | 0.00 | 51 | 1011.7 |
| 20260504193053 | 25 | 165 | 8.0 | 25.7 | 0.00 | 0.00 | 0.00 | 54 | 1011.8 |
| 20260504191547 | 24 | 176 | 4.8 | 22.5 | 0.00 | 0.00 | 0.00 | 54 | 1012.1 |
| 20260504190058 | 24 | 123 | 9.7 | 43.5 | 0.00 | 0.00 | 0.00 | 51 | 1012.2 |
| 20260504184543 | 24 | 200 | 8.0 | 20.9 | 0.00 | 0.00 | 0.00 | 53 | 1012.4 |
| 20260504183048 | 24 | 182 | 9.7 | 20.9 | 0.00 | 0.00 | 0.00 | 53 | 1012.5 |
| 20260504181545 | 24 | 183 | 6.4 | 27.4 | 0.00 | 0.00 | 0.00 | 53 | 1012.7 |
| 20260504180049 | 23 | 105 | 6.4 | 20.9 | 0.00 | 0.00 | 0.00 | 53 | 1012.8 |
| 20260504174544 | 23 | 66 | 4.8 | 16.1 | 0.00 | 0.00 | 0.00 | 55 | 1012.9 |
| 20260504173050 | 23 | 179 | 4.8 | 24.1 | 0.00 | 0.00 | 0.00 | 54 | 1013.5 |
| 20260504171547 | 23 | 165 | 4.8 | 19.3 | 0.00 | 0.00 | 0.00 | 55 | 1013.5 |
| 20260504090119 | 11 | 0 | 0.0 | 0.0 | 0.00 | 0.00 | 0.00 | 90 | 1014.4 |